This demonstration page uses our WeatherBlox Daily Observations layout. Learn more.

38.88101, -77.10428

Hourly Observations for March 13, 2017

Temp ( °F °C ) Dew Point ( °F °C ) Humidity (%) Winds ( mph kmh ) Pressure ( in mb ) Visibility ( mi km ) Precip ( " mm )
12:52 am 00:52 Mostly Cloudy 31 -0.6 10 -12.2 42 42 NNE 8 13 30.45 1031 10 16.09344 0 0
1:52 am 01:52 Mostly Cloudy 32 0 9 -12.8 38 38 NNE 10 17 30.45 1031 10 16.09344 0 0
2:52 am 02:52 Partly Cloudy 31 -0.6 10 -12.2 42 42 N 8 13 30.48 1032 10 16.09344 0 0
3:52 am 03:52 Partly Cloudy 30 -1.1 9 -12.8 41 41 NNE 8 13 30.45 1031 10 16.09344 0 0
4:52 am 04:52 Mostly Clear 30 -1.1 11 -11.7 45 45 NE 7 11 30.45 1031 10 16.09344 0 0
5:52 am 05:52 Mostly Clear 30 -1.1 12 -11.1 47 47 ENE 7 11 30.48 1032 10 16.09344 0 0
6:52 am 06:52 Partly Cloudy 29 -1.7 12 -11.1 49 49 ENE 7 11 30.48 1032 10 16.09344 0 0
7:52 am 07:52 Partly Cloudy 29 -1.7 13 -10.6 51 51 ENE 9 15 30.5 1033 10 16.09344 0 0
8:52 am 08:52 Mostly Cloudy 31 -0.6 14 -10 49 49 E 10 17 30.5 1033 10 16.09344 0 0
9:52 am 09:52 Cloudy 33 0.6 17 -8.3 52 52 E 13 20 30.48 1032 10 16.09344 0 0
10:52 am 10:52 Cloudy 35 1.7 17 -8.3 48 48 ESE 10 17 30.48 1032 10 16.09344 0 0
11:52 am 11:52 Cloudy 37 2.8 17 -8.3 44 44 SSE 7 11 30.45 1031 10 16.09344 0 0
12:52 pm 12:52 Mostly Cloudy 38 3.3 17 -8.3 43 43 ESE 6 9 30.42 1030 10 16.09344 0 0
1:52 pm 13:52 Cloudy 41 5 18 -7.8 39 39 ESE 9 15 30.36 1028 10 16.09344 0 0
2:52 pm 14:52 Cloudy 44 6.7 19 -7.2 37 37 SSE 8 13 30.33 1027 10 16.09344 0 0
3:52 pm 15:52 Cloudy 46 7.8 21 -6.1 37 37 SSE 13 20 30.3 1026 10 16.09344 0 0
4:52 pm 16:52 Cloudy 43 6.1 21 -6.1 42 42 SE 14 22 30.27 1025 10 16.09344 0 0
5:52 pm 17:52 Cloudy 41 5 23 -5 49 49 SE 13 20 30.24 1024 10 16.09344 0 0
6:27 pm 18:27 Cloudy with Light Snow 38 3.3 26 -3.3 62 62 SSE 10 17 30.27 1025 6 9.656064 0.001 0.001
6:48 pm 18:48 Cloudy with Light Snow 36 2 28 -2 75 75 SSE 12 19 30.27 1025 2.5 4.02336 0.001 0.001
6:52 pm 18:52 Cloudy with Light Snow 36 2.2 29 -1.7 76 76 SSE 9 15 30.27 1025 2 3.218688 0.001 0.001
7:00 pm 19:00 Cloudy with Light Snow 36 2 30 -1 81 81 SSE 10 17 30.27 1025 3 4.828032 0 0
7:03 pm 19:03 Cloudy with Light Snow 36 2 30 -1 81 81 SE 10 17 30.27 1025 2.5 4.02336 0 0
7:09 pm 19:09 Cloudy with Light Snow 35 1.7 30 -1.1 82 82 SE 9 15 30.27 1025 3 4.828032 0.001 0.001
7:46 pm 19:46 Cloudy 36 2 32 0 87 87 E 7 11 30.24 1024 10 16.09344 0.001 0.001
7:52 pm 19:52 Cloudy 35 1.7 32 0 89 89 ENE 6 9 30.21 1023 10 16.09344 0.001 0.001
8:34 pm 20:34 Cloudy with Light Snow 36 2 30 -1 81 81 E 8 13 30.21 1023 4 6.437376 0 0
8:52 pm 20:52 Cloudy with Light Snow 35 1.7 32 0 89 89 ENE 9 15 30.18 1022 5 8.04672 0.02 0.508
9:46 pm 21:46 Cloudy with Light Snow 34 1 32 0 93 93 ENE 10 17 30.21 1023 2.5 4.02336 0.03 0.762
9:52 pm 21:52 Cloudy with Light Snow 34 1.1 31 -0.6 89 89 NE 10 17 30.21 1023 2 3.218688 0.04 1.016
9:55 pm 21:55 Cloudy with Light Snow 34 1.1 32 0 92 92 ENE 12 19 30.21 1023 2 3.218688 0.01 0.254
10:15 pm 22:15 Cloudy with Light Snow 33 0.6 32 0 96 96 ENE 16 26 30.18 1022 1.5 2.414016 0.04 1.016
10:22 pm 22:22 Cloudy with Light Snow 34 1 30 -1 87 87 ENE 17 28 30.18 1022 1.5 2.414016 0 0
10:52 pm 22:52 Cloudy with Light Snow 32 0 30 -1.1 92 92 ENE 16 26 30.15 1021 1.5 2.414016 0.07 1.778
11:07 pm 23:07 Cloudy with Light Snow 32 0 30 -1.1 92 92 NE 15 24 30.15 1021 0.75 1.207008 0.02 0.508
11:21 pm 23:21 Cloudy with Mist and Fog 31 -0.6 29 -1.7 92 92 NE 13 20 30.12 1020 1 1.609344 0.04 1.016
11:33 pm 23:33 Cloudy with Freezing Fog 31 -0.6 30 -1.1 96 96 NNE 13 20 30.12 1020 3 4.828032 0.08 2.032
11:37 pm 23:37 Cloudy with Freezing Fog 31 -0.6 30 -1.1 96 96 NE 13 20 30.12 1020 3 4.828032 0.09 2.286
11:52 pm 23:52 Cloudy with Freezing Fog 31 -0.6 29 -1.7 92 92 NNE 15 24 30.09 1019 5 8.04672 0.1 2.54

Powered by AerisWeather